Regional Weather Roundup
Issued by NWS

Current Version | Previous Version | Text Only | Print | Product List | Glossary On
Versions: 1 2 3 4 5 6 7 8 9 10 11 12 13 14 15 16 17 18 19 20 21 22 23 24 25 26 27 28 29 30 31 32 33 34 35 36 37 38 39 40 41 42 43 44 45 46 47 48 49 50
396
ASUS44 KOUN 080710
RWROK

WEATHER ROUNDUP FOR OKLAHOMA
NATIONAL WEATHER SERVICE NORMAN OK
100 AM CST SUN DEC 08 2019

NOTE: "FAIR" INDICATES FEW OR NO CLOUDS BELOW 12,000 FEET WITH NO
      SIGNIFICANT WEATHER AND/OR OBSTRUCTIONS TO VISIBILITY.

OKZ001>007-009>012-014-015-017-080800-
NORTHWEST OKLAHOMA AND THE PANHANDLE

CITY           SKY/WX    TMP DP  RH WIND       PRES   REMARKS
GAGE           CLEAR     48  34  58 S22G29    29.86F
GUYMON         CLEAR     45  29  53 W12       29.85F
ENID/WOODRING  CLEAR     36  32  87 S6        29.93F WCI  31
$$

OKZ016-021>023-033>039-044-045-080800-
SOUTHWEST OKLAHOMA

CITY           SKY/WX    TMP DP  RH WIND       PRES   REMARKS
LAWTON/REGL    CLEAR     45  38  76 SE7       30.00F
LAWTON/FT SILL CLEAR     41  40  93 S8        29.98F
FREDERICK      CLEAR     45  38  76 S13       29.95F
CLINTON        CLEAR     45  35  68 S21       29.93F
HOBART           N/A    N/A N/A N/A MISG      29.95F
ALTUS AFB      CLEAR     41  35  81 SE7       29.96F
$$

OKZ018>020-024>031-080800-
CENTRAL OKLAHOMA

CITY           SKY/WX    TMP DP  RH WIND       PRES   REMARKS
OKLAHOMA CITY  MOCLDY    46  38  73 S13       29.98F
OKC/WILEY POST CLEAR     49  38  65 S18       29.97F
OKC/TINKER AFB CLEAR     47  38  70 S15       29.98F
STILLWATER     CLEAR     47  38  71 S13       29.97F
GUTHRIE        CLEAR     50  38  63 S14       29.96F
$$

OKZ008-013-054>072-080800-
NORTHEAST OKLAHOMA

CITY           SKY/WX    TMP DP  RH WIND       PRES   REMARKS
TULSA          PTCLDY    45  39  79 S8        30.02F
TULSA/JONES    CLEAR     45  40  82 S6        30.04F
PONCA CITY     CLEAR     47  38  71 S13       29.95F
BARTLESVILLE   CLEAR     40  37  89 S8        30.02F WCI  34
MUSKOGEE       CLEAR     41  37  86 S8        30.09F
$$

OKZ032-040>043-046>053-073>077-080800-
SOUTH CENTRAL/SOUTHEAST OKLAHOMA

CITY           SKY/WX    TMP DP  RH WIND       PRES   REMARKS
ARDMORE/DWNTWN CLEAR     43  39  87 CALM      30.05F
MCALESTER      CLEAR     50  44  80 VRB7      30.09F
$$





USA.gov is the U.S. government's official web portal to all federal, state and local government web resources and services.